Year,Month,Day,Hour,Minute,Value (Times are PST for temperature in C)
2017,06,23,00,00,14.20
2017,06,23,00,01,14.20
2017,06,23,00,02,14.20
2017,06,23,00,03,14.20
2017,06,23,00,04,14.10
2017,06,23,00,05,14.10
2017,06,23,00,06,14.10
2017,06,23,00,07,14.10
2017,06,23,00,08,14.10
2017,06,23,00,09,14.10
2017,06,23,00,10,14.10
2017,06,23,00,11,14.10
2017,06,23,00,12,14.10
2017,06,23,00,13,14.10
2017,06,23,00,14,14.10
2017,06,23,00,15,14.10
2017,06,23,00,16,14.10
2017,06,23,00,17,14.20
2017,06,23,00,18,14.20
2017,06,23,00,19,14.20
2017,06,23,00,20,14.20
2017,06,23,00,21,14.20
2017,06,23,00,22,14.20
2017,06,23,00,23,14.20
2017,06,23,00,24,14.20
2017,06,23,00,25,14.20
2017,06,23,00,26,14.20
2017,06,23,00,27,14.20
2017,06,23,00,28,14.30
2017,06,23,00,29,14.30
2017,06,23,00,30,14.40
2017,06,23,00,31,14.40
2017,06,23,00,32,14.40
2017,06,23,00,33,14.50
2017,06,23,00,34,14.50
2017,06,23,00,35,14.50
2017,06,23,00,36,14.50
2017,06,23,00,37,14.50
2017,06,23,00,38,14.60
2017,06,23,00,39,14.60
2017,06,23,00,40,14.60
2017,06,23,00,41,14.60
2017,06,23,00,42,14.60
2017,06,23,00,43,14.60
2017,06,23,00,44,14.60
2017,06,23,00,45,14.60
2017,06,23,00,46,14.60
2017,06,23,00,47,14.50
2017,06,23,00,48,14.50
2017,06,23,00,49,14.50
2017,06,23,00,50,14.50
2017,06,23,00,51,14.50
2017,06,23,00,52,14.50
2017,06,23,00,53,14.50
2017,06,23,00,54,14.40
2017,06,23,00,55,14.40
2017,06,23,00,56,14.40
2017,06,23,00,57,14.40
2017,06,23,00,58,14.40
2017,06,23,00,59,14.40
2017,06,23,01,00,14.40
2017,06,23,01,01,14.30
2017,06,23,01,02,14.30
2017,06,23,01,03,14.30
2017,06,23,01,04,14.30
2017,06,23,01,05,14.20
2017,06,23,01,06,14.20
2017,06,23,01,07,14.20
2017,06,23,01,08,14.10
2017,06,23,01,09,14.10
2017,06,23,01,10,14.10
2017,06,23,01,11,14.10
2017,06,23,01,12,14.00
2017,06,23,01,13,14.00
2017,06,23,01,14,13.90
2017,06,23,01,15,13.90
2017,06,23,01,16,13.90
2017,06,23,01,17,13.90
2017,06,23,01,18,13.90
2017,06,23,01,19,13.80
2017,06,23,01,20,13.80
2017,06,23,01,21,13.80
2017,06,23,01,22,13.80
2017,06,23,01,23,13.80
2017,06,23,01,24,13.80
2017,06,23,01,25,13.70
2017,06,23,01,26,13.70
2017,06,23,01,27,13.70
2017,06,23,01,28,13.60
2017,06,23,01,29,13.60
2017,06,23,01,30,13.60
2017,06,23,01,31,13.60
2017,06,23,01,32,13.50
2017,06,23,01,33,13.50
2017,06,23,01,34,13.50
2017,06,23,01,35,13.50
2017,06,23,01,36,13.40
2017,06,23,01,37,13.40
2017,06,23,01,38,13.40
2017,06,23,01,39,13.40
2017,06,23,01,40,13.40
2017,06,23,01,41,13.40
2017,06,23,01,42,13.30
2017,06,23,01,43,13.30
2017,06,23,01,44,13.30
2017,06,23,01,45,13.30
2017,06,23,01,46,13.20
2017,06,23,01,47,13.20
2017,06,23,01,48,13.20
2017,06,23,01,49,13.20
2017,06,23,01,50,13.20
2017,06,23,01,51,13.10
2017,06,23,01,52,13.10
2017,06,23,01,53,13.10
2017,06,23,01,54,13.00
2017,06,23,01,55,13.00
2017,06,23,01,56,13.00
2017,06,23,01,57,12.90
2017,06,23,01,58,12.90
2017,06,23,01,59,12.90
2017,06,23,02,00,12.80
2017,06,23,02,01,12.80
2017,06,23,02,02,12.80
2017,06,23,02,03,12.80
2017,06,23,02,04,12.80
2017,06,23,02,05,12.80
2017,06,23,02,06,12.70
2017,06,23,02,07,12.70
2017,06,23,02,08,12.70
2017,06,23,02,09,12.70
2017,06,23,02,10,12.70
2017,06,23,02,11,12.70
2017,06,23,02,12,12.60
2017,06,23,02,13,12.60
2017,06,23,02,14,12.60
2017,06,23,02,15,12.60
2017,06,23,02,16,12.50
2017,06,23,02,17,12.50
2017,06,23,02,18,12.50
2017,06,23,02,19,12.50
2017,06,23,02,20,12.50
2017,06,23,02,21,12.40
2017,06,23,02,22,12.40
2017,06,23,02,23,12.40
2017,06,23,02,24,12.40
2017,06,23,02,25,12.40
2017,06,23,02,26,12.40
2017,06,23,02,27,12.30
2017,06,23,02,28,12.30
2017,06,23,02,29,12.30
2017,06,23,02,30,12.30
2017,06,23,02,31,12.30
2017,06,23,02,32,12.30
2017,06,23,02,33,12.30
2017,06,23,02,34,12.30
2017,06,23,02,35,12.20
2017,06,23,02,36,12.20
2017,06,23,02,37,12.20
2017,06,23,02,38,12.20
2017,06,23,02,39,12.20
2017,06,23,02,40,12.20
2017,06,23,02,41,12.20
2017,06,23,02,42,12.20
2017,06,23,02,43,12.20
2017,06,23,02,44,12.10
2017,06,23,02,45,12.10
2017,06,23,02,46,12.10
2017,06,23,02,47,12.10
2017,06,23,02,48,12.10
2017,06,23,02,49,12.10
2017,06,23,02,50,12.10
2017,06,23,02,51,12.00
2017,06,23,02,52,12.00
2017,06,23,02,53,12.00
2017,06,23,02,54,12.00
2017,06,23,02,55,12.00
2017,06,23,02,56,12.00
2017,06,23,02,57,12.00
2017,06,23,02,58,11.90
2017,06,23,02,59,11.90
2017,06,23,03,00,11.90
2017,06,23,03,01,11.90
2017,06,23,03,02,11.90
2017,06,23,03,03,11.90
2017,06,23,03,04,11.90
2017,06,23,03,05,11.90
2017,06,23,03,06,11.90
2017,06,23,03,07,11.90
2017,06,23,03,08,11.90
2017,06,23,03,09,11.90
2017,06,23,03,10,11.90
2017,06,23,03,11,11.90
2017,06,23,03,12,11.90
2017,06,23,03,13,11.90
2017,06,23,03,14,11.80
2017,06,23,03,15,11.80
2017,06,23,03,16,11.80
2017,06,23,03,17,11.80
2017,06,23,03,18,11.80
2017,06,23,03,19,11.80
2017,06,23,03,20,11.80
2017,06,23,03,21,11.70
2017,06,23,03,22,11.70
2017,06,23,03,23,11.70
2017,06,23,03,24,11.70
2017,06,23,03,25,11.70
2017,06,23,03,26,11.60
2017,06,23,03,27,11.60
2017,06,23,03,28,11.60
2017,06,23,03,29,11.60
2017,06,23,03,30,11.60
2017,06,23,03,31,11.60
2017,06,23,03,32,11.60
2017,06,23,03,33,11.60
2017,06,23,03,34,11.60
2017,06,23,03,35,11.60
2017,06,23,03,36,11.60
2017,06,23,03,37,11.50
2017,06,23,03,38,11.50
2017,06,23,03,39,11.60
2017,06,23,03,40,11.60
2017,06,23,03,41,11.60
2017,06,23,03,42,11.60
2017,06,23,03,43,11.60
2017,06,23,03,44,11.60
2017,06,23,03,45,11.50
2017,06,23,03,46,11.50
2017,06,23,03,47,11.50
2017,06,23,03,48,11.50
2017,06,23,03,49,11.50
2017,06,23,03,50,11.50
2017,06,23,03,51,11.50
2017,06,23,03,52,11.50
2017,06,23,03,53,11.50
2017,06,23,03,54,11.50
2017,06,23,03,55,11.50
2017,06,23,03,56,11.50
2017,06,23,03,57,11.50
2017,06,23,03,58,11.50
2017,06,23,03,59,11.50
2017,06,23,04,00,11.50
2017,06,23,04,01,11.50
2017,06,23,04,02,11.50
2017,06,23,04,03,11.50
2017,06,23,04,04,11.50
2017,06,23,04,05,11.50
2017,06,23,04,06,11.50
2017,06,23,04,07,11.40
2017,06,23,04,08,11.40
2017,06,23,04,09,11.40
2017,06,23,04,10,11.40
2017,06,23,04,11,11.40
2017,06,23,04,12,11.40
2017,06,23,04,13,11.30
2017,06,23,04,14,11.30
2017,06,23,04,15,11.30
2017,06,23,04,16,11.30
2017,06,23,04,17,11.30
2017,06,23,04,18,11.30
2017,06,23,04,19,11.30
2017,06,23,04,20,11.30
2017,06,23,04,21,11.30
2017,06,23,04,22,11.30
2017,06,23,04,23,11.30
2017,06,23,04,24,11.30
2017,06,23,04,25,11.30
2017,06,23,04,26,11.30
2017,06,23,04,27,11.30
2017,06,23,04,28,11.30
2017,06,23,04,29,11.30
2017,06,23,04,30,11.30
2017,06,23,04,31,11.30
2017,06,23,04,32,11.30
2017,06,23,04,33,11.30
2017,06,23,04,34,11.30
2017,06,23,04,35,11.30
2017,06,23,04,36,11.30
2017,06,23,04,37,11.30
2017,06,23,04,38,11.30
2017,06,23,04,39,11.30
2017,06,23,04,40,11.30
2017,06,23,04,41,11.30
2017,06,23,04,42,11.30
2017,06,23,04,43,11.30
2017,06,23,04,44,11.30
2017,06,23,04,45,11.20
2017,06,23,04,46,11.20
2017,06,23,04,47,11.20
2017,06,23,04,48,11.20
2017,06,23,04,49,11.20
2017,06,23,04,50,11.20
2017,06,23,04,51,11.20
2017,06,23,04,52,11.20
2017,06,23,04,53,11.20
2017,06,23,04,54,11.20
2017,06,23,04,55,11.20
2017,06,23,04,56,11.20
2017,06,23,04,57,11.10
2017,06,23,04,58,11.10
2017,06,23,04,59,11.10
2017,06,23,05,00,11.10
2017,06,23,05,01,11.10
2017,06,23,05,02,11.10
2017,06,23,05,03,11.00
2017,06,23,05,04,11.00
2017,06,23,05,05,10.90
2017,06,23,05,06,10.90
2017,06,23,05,07,10.90
2017,06,23,05,08,10.90
2017,06,23,05,09,10.90
2017,06,23,05,10,10.90
2017,06,23,05,11,10.90
2017,06,23,05,12,10.90
2017,06,23,05,13,10.90
2017,06,23,05,14,10.90
2017,06,23,05,15,10.90
2017,06,23,05,16,11.00
2017,06,23,05,17,11.00
2017,06,23,05,18,11.00
2017,06,23,05,19,11.00
2017,06,23,05,20,11.00
2017,06,23,05,21,11.00
2017,06,23,05,22,11.00
2017,06,23,05,23,11.00
2017,06,23,05,24,11.00
2017,06,23,05,25,11.00
2017,06,23,05,26,11.00
2017,06,23,05,27,11.00
2017,06,23,05,28,11.00
2017,06,23,05,29,11.00
2017,06,23,05,30,10.90
2017,06,23,05,31,11.00
2017,06,23,05,32,11.00
2017,06,23,05,33,11.00
2017,06,23,05,34,11.10
2017,06,23,05,35,11.10
2017,06,23,05,36,11.10
2017,06,23,05,37,11.20
2017,06,23,05,38,11.20
2017,06,23,05,39,11.20
2017,06,23,05,40,11.30
2017,06,23,05,41,11.30
2017,06,23,05,42,11.30
2017,06,23,05,43,11.30
2017,06,23,05,44,11.30
2017,06,23,05,45,11.30
2017,06,23,05,46,11.30
2017,06,23,05,47,11.40
2017,06,23,05,48,11.40
2017,06,23,05,49,11.40
2017,06,23,05,50,11.40
2017,06,23,05,51,11.40
2017,06,23,05,52,11.40
2017,06,23,05,53,11.40
2017,06,23,05,54,11.40
2017,06,23,05,55,11.40
2017,06,23,05,56,11.40
2017,06,23,05,57,11.50
2017,06,23,05,58,11.50
2017,06,23,05,59,11.50
2017,06,23,06,00,11.50
2017,06,23,06,01,11.50
2017,06,23,06,02,11.60
2017,06,23,06,03,11.60
2017,06,23,06,04,11.60
2017,06,23,06,05,11.70
2017,06,23,06,06,11.70
2017,06,23,06,07,11.70
2017,06,23,06,08,11.80
2017,06,23,06,09,11.80
2017,06,23,06,10,11.80
2017,06,23,06,11,11.90
2017,06,23,06,12,11.90
2017,06,23,06,13,11.90
2017,06,23,06,14,12.00
2017,06,23,06,15,12.00
2017,06,23,06,16,12.00
2017,06,23,06,17,12.10
2017,06,23,06,18,12.10
2017,06,23,06,19,12.10
2017,06,23,06,20,12.20
2017,06,23,06,21,12.20
2017,06,23,06,22,12.20
2017,06,23,06,23,12.30
2017,06,23,06,24,12.30
2017,06,23,06,25,12.30
2017,06,23,06,26,12.40
2017,06,23,06,27,12.40
2017,06,23,06,28,12.50
2017,06,23,06,29,12.50
2017,06,23,06,30,12.60
2017,06,23,06,31,12.70
2017,06,23,06,32,12.70
2017,06,23,06,33,12.80
2017,06,23,06,34,12.80
2017,06,23,06,35,12.90
2017,06,23,06,36,13.00
2017,06,23,06,37,13.00
2017,06,23,06,38,13.10
2017,06,23,06,39,13.20
2017,06,23,06,40,13.30
2017,06,23,06,41,13.40
2017,06,23,06,42,13.40
2017,06,23,06,43,13.50
2017,06,23,06,44,13.60
2017,06,23,06,45,13.70
2017,06,23,06,46,13.70
2017,06,23,06,47,13.80
2017,06,23,06,48,13.90
2017,06,23,06,49,14.00
2017,06,23,06,50,14.00
2017,06,23,06,51,14.10
2017,06,23,06,52,14.20
2017,06,23,06,53,14.30
2017,06,23,06,54,14.50
2017,06,23,06,55,14.60
2017,06,23,06,56,14.70
2017,06,23,06,57,14.80
2017,06,23,06,58,14.90
2017,06,23,06,59,15.00
2017,06,23,07,00,15.10
2017,06,23,07,01,15.20
2017,06,23,07,02,15.30
2017,06,23,07,03,15.50
2017,06,23,07,04,15.60
2017,06,23,07,05,15.80
2017,06,23,07,06,15.90
2017,06,23,07,07,16.00
2017,06,23,07,08,16.10
2017,06,23,07,09,16.10
2017,06,23,07,10,16.20
2017,06,23,07,11,16.30
2017,06,23,07,12,16.30
2017,06,23,07,13,16.30
2017,06,23,07,14,16.40
2017,06,23,07,15,16.50
2017,06,23,07,16,16.60
2017,06,23,07,17,16.70
2017,06,23,07,18,16.80
2017,06,23,07,19,16.90
2017,06,23,07,20,17.00
2017,06,23,07,21,17.10
2017,06,23,07,22,17.20
2017,06,23,07,23,17.20
2017,06,23,07,24,17.30
2017,06,23,07,25,17.30
2017,06,23,07,26,17.40
2017,06,23,07,27,17.40
2017,06,23,07,28,17.50
2017,06,23,07,29,17.50
2017,06,23,07,30,17.60
2017,06,23,07,31,17.70
2017,06,23,07,32,17.80
2017,06,23,07,33,17.90
2017,06,23,07,34,17.90
2017,06,23,07,35,17.90
2017,06,23,07,36,17.80
2017,06,23,07,37,17.80
2017,06,23,07,38,17.80
2017,06,23,07,39,17.80
2017,06,23,07,40,17.80
2017,06,23,07,41,17.90
2017,06,23,07,42,17.90
2017,06,23,07,43,17.90
2017,06,23,07,44,17.90
2017,06,23,07,45,17.90
2017,06,23,07,46,17.80
2017,06,23,07,47,17.80
2017,06,23,07,48,17.80
2017,06,23,07,49,17.70
2017,06,23,07,50,17.70
2017,06,23,07,51,17.80
2017,06,23,07,52,17.80
2017,06,23,07,53,17.80
2017,06,23,07,54,17.80
2017,06,23,07,55,17.80
2017,06,23,07,56,17.80
2017,06,23,07,57,17.70
2017,06,23,07,58,17.80
2017,06,23,07,59,17.80
2017,06,23,08,00,17.70
2017,06,23,08,01,17.70
2017,06,23,08,02,17.70
2017,06,23,08,03,17.70
2017,06,23,08,04,17.70
2017,06,23,08,05,17.80
2017,06,23,08,06,17.80
2017,06,23,08,07,17.80
2017,06,23,08,08,17.90
2017,06,23,08,09,17.90
2017,06,23,08,10,18.00
2017,06,23,08,11,18.10
2017,06,23,08,12,18.10
2017,06,23,08,13,18.10
2017,06,23,08,14,18.00
2017,06,23,08,15,18.00
2017,06,23,08,16,18.00
2017,06,23,08,17,18.10
2017,06,23,08,18,18.10
2017,06,23,08,19,18.20
2017,06,23,08,20,18.30
2017,06,23,08,21,18.30
2017,06,23,08,22,18.30
2017,06,23,08,23,18.30
2017,06,23,08,24,18.30
2017,06,23,08,25,18.30
2017,06,23,08,26,18.30
2017,06,23,08,27,18.30
2017,06,23,08,28,18.20
2017,06,23,08,29,18.20
2017,06,23,08,30,18.20
2017,06,23,08,31,18.20
2017,06,23,08,32,18.30
2017,06,23,08,33,18.30
2017,06,23,08,34,18.30
2017,06,23,08,35,18.20
2017,06,23,08,36,18.20
2017,06,23,08,37,18.20
2017,06,23,08,38,18.20
2017,06,23,08,39,18.30
2017,06,23,08,40,18.30
2017,06,23,08,41,18.30
2017,06,23,08,42,18.30
2017,06,23,08,43,18.40
2017,06,23,08,44,18.50
2017,06,23,08,45,18.50
2017,06,23,08,46,18.60
2017,06,23,08,47,18.60
2017,06,23,08,48,18.70
2017,06,23,08,49,18.70
2017,06,23,08,50,18.80
2017,06,23,08,51,18.80
2017,06,23,08,52,18.70
2017,06,23,08,53,18.60
2017,06,23,08,54,18.60
2017,06,23,08,55,18.50
2017,06,23,08,56,18.50
2017,06,23,08,57,18.50
2017,06,23,08,58,18.60
2017,06,23,08,59,18.60
2017,06,23,09,00,18.60
2017,06,23,09,01,18.60
2017,06,23,09,02,18.60
2017,06,23,09,03,18.70
2017,06,23,09,04,18.70
2017,06,23,09,05,18.70
2017,06,23,09,06,18.70
2017,06,23,09,07,18.70
2017,06,23,09,08,18.70
2017,06,23,09,09,18.70
2017,06,23,09,10,18.70
2017,06,23,09,11,18.70
2017,06,23,09,12,18.80
2017,06,23,09,13,18.90
2017,06,23,09,14,18.90
2017,06,23,09,15,18.90
2017,06,23,09,16,18.90
2017,06,23,09,17,18.90
2017,06,23,09,18,18.90
2017,06,23,09,19,19.00
2017,06,23,09,20,19.00
2017,06,23,09,21,18.90
2017,06,23,09,22,18.90
2017,06,23,09,23,19.00
2017,06,23,09,24,19.10
2017,06,23,09,25,19.10
2017,06,23,09,26,19.10
2017,06,23,09,27,19.10
2017,06,23,09,28,19.20
2017,06,23,09,29,19.30
2017,06,23,09,30,19.30
2017,06,23,09,31,19.40
2017,06,23,09,32,19.40
2017,06,23,09,33,19.40
2017,06,23,09,34,19.40
2017,06,23,09,35,19.40
2017,06,23,09,36,19.50
2017,06,23,09,37,19.50
2017,06,23,09,38,19.60
2017,06,23,09,39,19.60
2017,06,23,09,40,19.70
2017,06,23,09,41,19.70
2017,06,23,09,42,19.70
2017,06,23,09,43,19.70
2017,06,23,09,44,19.80
2017,06,23,09,45,19.80
2017,06,23,09,46,19.90
2017,06,23,09,47,20.00
2017,06,23,09,48,20.00
2017,06,23,09,49,20.00
2017,06,23,09,50,20.00
2017,06,23,09,51,19.90
2017,06,23,09,52,19.90
2017,06,23,09,53,19.80
2017,06,23,09,54,19.90
2017,06,23,09,55,19.90
2017,06,23,09,56,20.00
2017,06,23,09,57,20.00
2017,06,23,09,58,20.10
2017,06,23,09,59,20.10
2017,06,23,10,00,20.10
2017,06,23,10,01,20.10
2017,06,23,10,02,20.00
2017,06,23,10,03,20.00
2017,06,23,10,04,20.00
2017,06,23,10,05,20.00
2017,06,23,10,06,20.10
2017,06,23,10,07,20.10
2017,06,23,10,08,20.10
2017,06,23,10,09,20.10
2017,06,23,10,10,20.10
2017,06,23,10,11,20.10
2017,06,23,10,12,20.20
2017,06,23,10,13,20.20
2017,06,23,10,14,20.30
2017,06,23,10,15,20.40
2017,06,23,10,16,20.40
2017,06,23,10,17,20.50
2017,06,23,10,18,20.60
2017,06,23,10,19,20.60
2017,06,23,10,20,20.70
2017,06,23,10,21,20.70
2017,06,23,10,22,20.70
2017,06,23,10,23,20.80
2017,06,23,10,24,20.80
2017,06,23,10,25,20.80
2017,06,23,10,26,20.90
2017,06,23,10,27,21.00
2017,06,23,10,28,21.00
2017,06,23,10,29,21.10
2017,06,23,10,30,21.10
2017,06,23,10,31,21.20
2017,06,23,10,32,21.20
2017,06,23,10,33,21.20
2017,06,23,10,34,21.20
2017,06,23,10,35,21.20
2017,06,23,10,36,21.20
2017,06,23,10,37,21.10
2017,06,23,10,38,21.10
2017,06,23,10,39,21.10
2017,06,23,10,40,21.10
2017,06,23,10,41,21.10
2017,06,23,10,42,21.10
2017,06,23,10,43,21.10
2017,06,23,10,44,21.10
2017,06,23,10,45,21.10
2017,06,23,10,46,21.00
2017,06,23,10,47,21.00
2017,06,23,10,48,21.10
2017,06,23,10,49,21.10
2017,06,23,10,50,21.20
2017,06,23,10,51,21.20
2017,06,23,10,52,21.30
2017,06,23,10,53,21.30
2017,06,23,10,54,21.40
2017,06,23,10,55,21.50
2017,06,23,10,56,21.70
2017,06,23,10,57,21.70
2017,06,23,10,58,21.80
2017,06,23,10,59,21.80
2017,06,23,11,00,21.70
2017,06,23,11,01,21.70
2017,06,23,11,02,21.70
2017,06,23,11,03,21.70
2017,06,23,11,04,21.80
2017,06,23,11,05,21.80
2017,06,23,11,06,21.70
2017,06,23,11,07,21.60
2017,06,23,11,08,21.60
2017,06,23,11,09,21.50
2017,06,23,11,10,21.50
2017,06,23,11,11,21.50
2017,06,23,11,12,21.50
2017,06,23,11,13,21.60
2017,06,23,11,14,21.70
2017,06,23,11,15,21.80
2017,06,23,11,16,21.80
2017,06,23,11,17,21.70
2017,06,23,11,18,21.70
2017,06,23,11,19,21.70
2017,06,23,11,20,21.70
2017,06,23,11,21,21.70
2017,06,23,11,22,21.80
2017,06,23,11,23,21.80
2017,06,23,11,24,21.80
2017,06,23,11,25,21.80
2017,06,23,11,26,21.80
2017,06,23,11,27,21.90
2017,06,23,11,28,21.90
2017,06,23,11,29,22.00
2017,06,23,11,30,22.10
2017,06,23,11,31,22.00
2017,06,23,11,32,22.00
2017,06,23,11,33,21.90
2017,06,23,11,34,21.90
2017,06,23,11,35,22.00
2017,06,23,11,36,22.10
2017,06,23,11,37,22.10
2017,06,23,11,38,22.20
2017,06,23,11,39,22.10
2017,06,23,11,40,22.20
2017,06,23,11,41,22.10
2017,06,23,11,42,22.10
2017,06,23,11,43,22.20
2017,06,23,11,44,22.30
2017,06,23,11,45,22.30
2017,06,23,11,46,22.30
2017,06,23,11,47,22.30
2017,06,23,11,48,22.30
2017,06,23,11,49,22.20
2017,06,23,11,50,22.10
2017,06,23,11,51,22.10
2017,06,23,11,52,22.10
2017,06,23,11,53,22.10
2017,06,23,11,54,22.20
2017,06,23,11,55,22.20
2017,06,23,11,56,22.30
2017,06,23,11,57,22.30
2017,06,23,11,58,22.30
2017,06,23,11,59,22.40
2017,06,23,12,00,22.40
2017,06,23,12,01,22.50
2017,06,23,12,02,22.40
2017,06,23,12,03,22.40
2017,06,23,12,04,22.40
2017,06,23,12,05,22.40
2017,06,23,12,06,22.40
2017,06,23,12,07,22.40
2017,06,23,12,08,22.40
2017,06,23,12,09,22.40
2017,06,23,12,10,22.30
2017,06,23,12,11,22.40
2017,06,23,12,12,22.50
2017,06,23,12,13,22.50
2017,06,23,12,14,22.40
2017,06,23,12,15,22.30
2017,06,23,12,16,22.40
2017,06,23,12,17,22.40
2017,06,23,12,18,22.40
2017,06,23,12,19,22.30
2017,06,23,12,20,22.30
2017,06,23,12,21,22.30
2017,06,23,12,22,22.40
2017,06,23,12,23,22.50
2017,06,23,12,24,22.70
2017,06,23,12,25,22.80
2017,06,23,12,26,22.90
2017,06,23,12,27,23.00
2017,06,23,12,28,23.00
2017,06,23,12,29,23.10
2017,06,23,12,30,23.00
2017,06,23,12,31,23.00
2017,06,23,12,32,23.00
2017,06,23,12,33,23.00
2017,06,23,12,34,23.00
2017,06,23,12,35,23.00
2017,06,23,12,36,22.90
2017,06,23,12,37,22.90
2017,06,23,12,38,22.90
2017,06,23,12,39,23.00
2017,06,23,12,40,23.00
2017,06,23,12,41,23.00
2017,06,23,12,42,23.10
2017,06,23,12,43,23.10
2017,06,23,12,44,23.10
2017,06,23,12,45,23.10
2017,06,23,12,46,23.10
2017,06,23,12,47,23.10
2017,06,23,12,48,23.10
2017,06,23,12,49,23.10
2017,06,23,12,50,23.10
2017,06,23,12,51,23.00
2017,06,23,12,52,22.90
2017,06,23,12,53,22.90
2017,06,23,12,54,22.90
2017,06,23,12,55,22.90
2017,06,23,12,56,23.00
2017,06,23,12,57,23.10
2017,06,23,12,58,23.20
2017,06,23,12,59,23.20
2017,06,23,13,00,23.20
2017,06,23,13,01,23.30
2017,06,23,13,02,23.30
2017,06,23,13,03,23.30
2017,06,23,13,04,23.40
2017,06,23,13,05,23.50
2017,06,23,13,06,23.50
2017,06,23,13,07,23.60
2017,06,23,13,08,23.70
2017,06,23,13,09,23.70
2017,06,23,13,10,23.80
2017,06,23,13,11,23.80
2017,06,23,13,12,23.90
2017,06,23,13,13,23.90
2017,06,23,13,14,24.00
2017,06,23,13,15,23.90
2017,06,23,13,16,23.80
2017,06,23,13,17,23.80
2017,06,23,13,18,23.80
2017,06,23,13,19,23.90
2017,06,23,13,20,23.80
2017,06,23,13,21,23.70
2017,06,23,13,22,23.70
2017,06,23,13,23,23.70
2017,06,23,13,24,23.60
2017,06,23,13,25,23.60
2017,06,23,13,26,23.60
2017,06,23,13,27,23.70
2017,06,23,13,28,23.90
2017,06,23,13,29,23.90
2017,06,23,13,30,24.00
2017,06,23,13,31,24.00
2017,06,23,13,32,24.00
2017,06,23,13,33,23.90
2017,06,23,13,34,23.90
2017,06,23,13,35,23.90
2017,06,23,13,36,24.00
2017,06,23,13,37,24.00
2017,06,23,13,38,23.90
2017,06,23,13,39,23.80
2017,06,23,13,40,23.80
2017,06,23,13,41,23.90
2017,06,23,13,42,23.90
2017,06,23,13,43,24.00
2017,06,23,13,44,24.10
2017,06,23,13,45,24.10
2017,06,23,13,46,24.10
2017,06,23,13,47,24.20
2017,06,23,13,48,24.20
2017,06,23,13,49,24.10
2017,06,23,13,50,24.10
2017,06,23,13,51,24.10
2017,06,23,13,52,24.20
2017,06,23,13,53,24.30
2017,06,23,13,54,24.20
2017,06,23,13,55,24.20
2017,06,23,13,56,24.30
2017,06,23,13,57,24.40
2017,06,23,13,58,24.50
2017,06,23,13,59,24.50
2017,06,23,14,00,24.50
2017,06,23,14,01,24.60
2017,06,23,14,02,24.70
2017,06,23,14,03,24.80
2017,06,23,14,04,24.80
2017,06,23,14,05,24.80
2017,06,23,14,06,24.80
2017,06,23,14,07,24.80
2017,06,23,14,08,24.80
2017,06,23,14,09,24.80
2017,06,23,14,10,24.80
2017,06,23,14,11,24.80
2017,06,23,14,12,24.80
2017,06,23,14,13,24.80
2017,06,23,14,14,24.70
2017,06,23,14,15,24.70
2017,06,23,14,16,24.70
2017,06,23,14,17,24.60
2017,06,23,14,18,24.60
2017,06,23,14,19,24.60
2017,06,23,14,20,24.60
2017,06,23,14,21,24.70
2017,06,23,14,22,24.70
2017,06,23,14,23,24.80
2017,06,23,14,24,24.80
2017,06,23,14,25,24.80
2017,06,23,14,26,24.80
2017,06,23,14,27,24.90
2017,06,23,14,28,24.80
2017,06,23,14,29,24.80
2017,06,23,14,30,24.70
2017,06,23,14,31,24.60
2017,06,23,14,32,24.60
2017,06,23,14,33,24.60
2017,06,23,14,34,24.60
2017,06,23,14,35,24.50
2017,06,23,14,36,24.50
2017,06,23,14,37,24.50
2017,06,23,14,38,24.40
2017,06,23,14,39,24.40
2017,06,23,14,40,24.40
2017,06,23,14,41,24.40
2017,06,23,14,42,24.30
2017,06,23,14,43,24.20
2017,06,23,14,44,24.20
2017,06,23,14,45,24.20
2017,06,23,14,46,24.20
2017,06,23,14,47,24.20
2017,06,23,14,48,24.20
2017,06,23,14,49,24.30
2017,06,23,14,50,24.30
2017,06,23,14,51,24.40
2017,06,23,14,52,24.40
2017,06,23,14,53,24.50
2017,06,23,14,54,24.60
2017,06,23,14,55,24.60
2017,06,23,14,56,24.70
2017,06,23,14,57,24.80
2017,06,23,14,58,24.80
2017,06,23,14,59,24.80
2017,06,23,15,00,24.80
2017,06,23,15,01,24.90
2017,06,23,15,02,25.00
2017,06,23,15,03,25.10
2017,06,23,15,04,25.10
2017,06,23,15,05,25.00
2017,06,23,15,06,24.90
2017,06,23,15,07,24.90
2017,06,23,15,08,24.80
2017,06,23,15,09,24.70
2017,06,23,15,10,24.70
2017,06,23,15,11,24.80
2017,06,23,15,12,24.90
2017,06,23,15,13,24.90
2017,06,23,15,14,25.00
2017,06,23,15,15,25.00
2017,06,23,15,16,25.10
2017,06,23,15,17,25.10
2017,06,23,15,18,25.10
2017,06,23,15,19,25.10
2017,06,23,15,20,25.20
2017,06,23,15,21,25.20
2017,06,23,15,22,25.20
2017,06,23,15,23,25.20
2017,06,23,15,24,25.20
2017,06,23,15,25,25.20
2017,06,23,15,26,25.20
2017,06,23,15,27,25.20
2017,06,23,15,28,25.30
2017,06,23,15,29,25.40
2017,06,23,15,30,25.40
2017,06,23,15,31,25.40
2017,06,23,15,32,25.30
2017,06,23,15,33,25.30
2017,06,23,15,34,25.20
2017,06,23,15,35,25.20
2017,06,23,15,36,25.20
2017,06,23,15,37,25.20
2017,06,23,15,38,25.10
2017,06,23,15,39,25.20
2017,06,23,15,40,25.20
2017,06,23,15,41,25.20
2017,06,23,15,42,25.30
2017,06,23,15,43,25.40
2017,06,23,15,44,25.50
2017,06,23,15,45,25.50
2017,06,23,15,46,25.50
2017,06,23,15,47,25.50
2017,06,23,15,48,25.40
2017,06,23,15,49,25.40
2017,06,23,15,50,25.50
2017,06,23,15,51,25.60
2017,06,23,15,52,25.60
2017,06,23,15,53,25.70
2017,06,23,15,54,25.70
2017,06,23,15,55,25.70
2017,06,23,15,56,25.60
2017,06,23,15,57,25.60
2017,06,23,15,58,25.50
2017,06,23,15,59,25.50
2017,06,23,16,00,25.40
2017,06,23,16,01,25.50
2017,06,23,16,02,25.50
2017,06,23,16,03,25.60
2017,06,23,16,04,25.60
2017,06,23,16,05,25.60
2017,06,23,16,06,25.60
2017,06,23,16,07,25.70
2017,06,23,16,08,25.70
2017,06,23,16,09,25.70
2017,06,23,16,10,25.70
2017,06,23,16,11,25.80
2017,06,23,16,12,25.80
2017,06,23,16,13,25.80
2017,06,23,16,14,25.80
2017,06,23,16,15,25.80
2017,06,23,16,16,25.80
2017,06,23,16,17,25.90
2017,06,23,16,18,25.90
2017,06,23,16,19,25.90
2017,06,23,16,20,25.90
2017,06,23,16,21,26.00
2017,06,23,16,22,26.00
2017,06,23,16,23,26.00
2017,06,23,16,24,26.10
2017,06,23,16,25,26.20
2017,06,23,16,26,26.20
2017,06,23,16,27,26.30
2017,06,23,16,28,26.30
2017,06,23,16,29,26.30
2017,06,23,16,30,26.30
2017,06,23,16,31,26.40
2017,06,23,16,32,26.30
2017,06,23,16,33,26.30
2017,06,23,16,34,26.30
2017,06,23,16,35,26.30
2017,06,23,16,36,26.30
2017,06,23,16,37,26.30
2017,06,23,16,38,26.30
2017,06,23,16,39,26.30
2017,06,23,16,40,26.30
2017,06,23,16,41,26.30
2017,06,23,16,42,26.30
2017,06,23,16,43,26.30
2017,06,23,16,44,26.30
2017,06,23,16,45,26.30
2017,06,23,16,46,26.30
2017,06,23,16,47,26.40
2017,06,23,16,48,26.40
2017,06,23,16,49,26.50
2017,06,23,16,50,26.40
2017,06,23,16,51,26.40
2017,06,23,16,52,26.40
2017,06,23,16,53,26.40
2017,06,23,16,54,26.40
2017,06,23,16,55,26.40
2017,06,23,16,56,26.40
2017,06,23,16,57,26.40
2017,06,23,16,58,26.40
2017,06,23,16,59,26.40
2017,06,23,17,00,26.40
2017,06,23,17,01,26.40
2017,06,23,17,02,26.40
2017,06,23,17,03,26.40
2017,06,23,17,04,26.40
2017,06,23,17,05,26.50
2017,06,23,17,06,26.40
2017,06,23,17,07,26.30
2017,06,23,17,08,26.20
2017,06,23,17,09,26.00
2017,06,23,17,10,25.70
2017,06,23,17,11,25.50
2017,06,23,17,12,25.30
2017,06,23,17,13,25.10
2017,06,23,17,14,24.80
2017,06,23,17,15,24.60
2017,06,23,17,16,24.30
2017,06,23,17,17,24.10
2017,06,23,17,18,23.90
2017,06,23,17,19,23.80